AirNav   Everest Fuels
 
 1155 users online  

39P Strom Field Airport
Morton, Washington, USA

GOING TO MORTON?


FAA INFORMATION EFFECTIVE 10 SEPTEMBER 2020

Location

FAA Identifier: 39P
Lat/Long: 46-33-01.2990N 122-15-59.8530W
46-33.021650N 122-15.997550W
46.5503608,-122.2666258
(estimated)
Elevation: 941 ft. / 287 m (estimated)
Variation: 20E (1985)
Time zone: UTC -7 (UTC -8 during Standard Time)
Zip code: 98356

Airport Operations

Airport use: Open to the public
Activation date: 08/1964
Control tower: no
ARTCC: SEATTLE CENTER
FSS: SEATTLE FLIGHT SERVICE STATION
NOTAMs facility: SEA (NOTAM-D service available)
Attendance: UNATNDD
Wind indicator: lighted
Segmented circle: no
Lights: ACTVT MIRL RY 07/25 - CTAF.
Beacon: white-green (lighted land airport)
ACTVT ROTG BCN - CTAF.

Airport Communications

CTAF: 122.9

Nearby radio navigation aids

VOR radial/distance  VOR name  Freq  Var
OLMr115/36.3OLYMPIA VORTAC113.4019E
TCMr152/36.8MCCHORD VORTAC109.6015E

Airport Services

Parking: tiedowns
Airframe service: NONE
Powerplant service: NONE

Runway Information

Runway 7/25

Dimensions: 1810 x 40 ft. / 552 x 12 m
Surface: asphalt, in fair condition
Runway edge lights: medium intensity
Runway edge markings: MARKINGS FADED.
RUNWAY 7  RUNWAY 25
Latitude: 46-33.022283N46-33.021000N
Longitude: 122-16.213367W122-15.781733W
Traffic pattern: leftleft
Runway heading: 070 magnetic, 090 true250 magnetic, 270 true
Displaced threshold: 200 ft.no
Markings: basic, in poor conditionbasic, in poor condition
Obstructions: 50 ft. pline, 324 ft. from runway, 2:1 slope to clear
+3 FT FENCE AT 35 FT FM THLD AND 32 FT R; GUARD RAIL AND ROAD 98 FT FM THLD; 15 FT SIGN, 18 FT R, 65 FT FM THLD; TREE, 51 FT HIGH, 2 FT R, 120 FT FM THLD.
41 ft. trees, 1318 ft. from runway, 40 ft. both sides of centerline, 27:1 slope to clear
RWY 25 +2 FT ROAD AND GUARD RAIL AT 15 FT FM THLD, TREE, 15 FT HIGH, 49 FT R, 74 FT FM THLD, POLE, 8 FT HIGH, 79 FT R, 8 FT FM THLD.

Airport Ownership and Management from official FAA records

Ownership: Publicly-owned
Owner: CITY OF MORTON
PO BOX 1089
MORTON, WA 98356
Phone 360-496-6881
Manager: ANDERS PULLMAN
PO BOX 1089, PO BOX 1089
MORTON, WA 98356
Phone (360) 496-5210
PUB. WKS. SUP.

Airport Operational Statistics

Aircraft based on the field: 6
Single engine airplanes: 4
Ultralights: 2
    
Aircraft operations: avg 22/day *
82% transient general aviation
18% local general aviation
<1% military
* for 12-month period ending 31 December 2017

Additional Remarks

TREES NEAR RWY.
TREES, STREAM, AND BRUSH IN PRIM SFC.
DEER AND ELK ON & INVOF RWY.
DITCH PARL RWY ON EASTSIDE.
FOR CD CTC SEATTLE ARTCC AT 253-351-3694.

Instrument Procedures

There are no published instrument procedures at 39P.

Some nearby airports with instrument procedures:

KTDO - Ed Carlson Memorial Field - South Lewis Co Airport (23 nm W)
KCLS - Chehalis-Centralia Airport (30 nm W)
KPLU - Pierce County Airport - Thun Field (33 nm N)
KGRF - Gray Army Airfield (Joint Base Lewis-McChord) (34 nm N)
KOLM - Olympia Regional Airport (36 nm NW)
 
Loc | Ops | Rwys | IFR | FBO | Links
Com | Nav | Svcs | Stats | Notes
Area around 39P (Strom Field Airport)
 
Road maps at: MapQuest Bing Google
 
Aerial photo
WARNING: Photo may not be current or correct
Aerial photo of 39P (Strom Field Airport)
Photo taken 01-Sep-2012
looking west.

Do you have a better or more recent aerial photo of Strom Field Airport that you would like to share? If so, please send us your photo.

 
Sectional chart

 
Airport distance calculator
Flying to Strom Field Airport? Find the distance to fly.

From to 39P

Sunrise and sunset
Times for 30-Sep-2020
 Local
(UTC-7)
 Zulu
(UTC)
Morning civil twilight06:3913:39
Sunrise07:0914:09
Sunset18:4901:49
Evening civil twilight19:1902:19

Current date and time
Zulu (UTC)  01-Oct-2020 00:59:51
Local (UTC-7)  30-Sep-2020 17:59:51
 
METAR
KCLS 
30nm W 
010035Z AUTO 33003KT 10SM CLR 24/17 A3016 RMK AO2
KPLU 
33nm N 
010035Z AUTO 00000KT 10SM CLR 24/17 A3017 RMK AO2
KGRF 
33nm N 
302356Z AUTO 28004KT 10SM CLR 24/19 A3016 RMK AO2 SLP216 T02360189 10245 20170 57009 $
KTCM 
35nm N 
010056Z AUTO 33005KT 10SM CLR 23/14 A3017 RMK AO2 SLP220 T02270137 $
KOLM 
36nm NW 
010054Z 05003KT 10SM CLR 23/15 A3016 RMK AO2 SLP211 T02280150
KKLS 
37nm SW 
302356Z AUTO VRB05KT 10SM CLR 23/17 A3015 RMK AO2 SLP212 T02330167 10239 20150 56011
TAF
KGRF 
33nm N 
302103Z 3021/0203 VRB06KT 9000 FU BKN050 QNH3018INS BECMG 0112/0113 VRB06KT 4800 BR SCT002 BKN050 QNH3018INS BECMG 0118/0119 VRB06KT 9000 FU BKN050 QNH3016INS TX24/3023Z TN13/0114Z
KTCM 
35nm N 
302100Z 3021/0203 32006KT 9000 HZ FEW100 QNH3019INS BECMG 0111/0112 VRB04KT 9000 BCFG BKN025 QNH3016INS BECMG 0115/0116 31006KT 9000 HZ BKN020 QNH3017INS BECMG 0120/0121 26005KT 9000 HZ SCT100 QNH3016INS TX24/0100Z TN10/0113Z
KOLM 
36nm NW 
301737Z 3018/0118 24003KT P6SM OVC070 FM010500 00000KT P6SM SCT070 FM010900 00000KT 2SM BR BKN020
NOTAMs
Click for the latest NOTAMs
NOTAMs are issued by the DoD/FAA and will open in a separate window not controlled by AirNav.

 

 
 

Would you like to see your business listed on this page?

 If your business provides an interesting product or service to pilots, flight crews, aircraft, or users of the Strom Field Airport, you should consider listing it here.  To start the listing process, click on the button below
 
Add a business
 

Other Pages about Strom Field Airport

Update a link
 
Copyright © AirNav, LLC. All rights reserved. Privacy Policy  Contact